N852SB EKVG-EGPF

Flight info

Callsign N852SB
Flight time 1h 44m
Altitude 29000
Route RAKUP/N0314F290 DCT KESEG DCT BONBY/N0293F180 N560 ERSON
Aircraft TBM9/L-SDFGRWY/S

Departure

Time 2026-04-29 20:35
Airport Vágar Airport (EKVG)

Arrival

Time 2026-04-29 22:19
Airport Glasgow Airport (EGPF)
Time Latitude Longitude Altitude Speed Heading
2026-04-29 20:27 62.06590 -7.27661 256 ft 0 kts 29°
2026-04-29 20:31 62.06596 -7.27662 256 ft 5 kts 332°
2026-04-29 20:31 62.06585 -7.27729 256 ft 6 kts 295°
2026-04-29 20:31 62.06609 -7.27817 257 ft 7 kts 298°
2026-04-29 20:31 62.06623 -7.27879 258 ft 0 kts 295°
2026-04-29 20:32 62.06634 -7.27937 258 ft 10 kts 288°
2026-04-29 20:32 62.06621 -7.28071 259 ft 11 kts 192°
2026-04-29 20:32 62.06542 -7.28087 259 ft 12 kts 194°
2026-04-29 20:32 62.06477 -7.28167 260 ft 11 kts 259°
2026-04-29 20:33 62.06516 -7.28376 260 ft 19 kts 298°
2026-04-29 20:33 62.06580 -7.28634 263 ft 20 kts 298°
2026-04-29 20:33 62.06658 -7.28940 267 ft 26 kts 302°
2026-04-29 20:33 62.06678 -7.29040 267 ft 11 kts 103°
2026-04-29 20:34 62.06663 -7.28972 267 ft 16 kts 120°
2026-04-29 20:34 62.06493 -7.28264 259 ft 90 kts 120°
2026-04-29 20:34 62.06140 -7.26856 549 ft 118 kts 127°
2026-04-29 20:34 62.05723 -7.25049 836 ft 154 kts 124°
2026-04-29 20:35 62.05034 -7.22931 920 ft 185 kts 144°
2026-04-29 20:35 62.03870 -7.22005 1320 ft 179 kts 183°
2026-04-29 20:35 62.02694 -7.22654 1762 ft 173 kts 206°
2026-04-29 20:35 62.01599 -7.23377 2494 ft 162 kts 196°
2026-04-29 20:36 62.00493 -7.23666 3134 ft 159 kts 188°
2026-04-29 20:36 61.99359 -7.23564 3602 ft 170 kts 180°
2026-04-29 20:36 61.98200 -7.23008 4143 ft 173 kts 171°
2026-04-29 20:36 61.97050 -7.22112 4671 ft 175 kts 169°
2026-04-29 20:37 61.95901 -7.21246 5184 ft 175 kts 169°
2026-04-29 20:37 61.94750 -7.20368 5674 ft 176 kts 169°
2026-04-29 20:37 61.93603 -7.19490 6171 ft 178 kts 169°
2026-04-29 20:37 61.92430 -7.18590 6703 ft 178 kts 169°
2026-04-29 20:38 61.91256 -7.17692 7170 ft 179 kts 169°
2026-04-29 20:38 61.90101 -7.16809 7642 ft 179 kts 169°
2026-04-29 20:38 61.88910 -7.15899 8114 ft 181 kts 169°
2026-04-29 20:38 61.87734 -7.15002 8584 ft 182 kts 169°
2026-04-29 20:39 61.86537 -7.14089 9058 ft 183 kts 169°
2026-04-29 20:39 61.85334 -7.13172 9540 ft 184 kts 169°
2026-04-29 20:39 61.84128 -7.12253 10026 ft 184 kts 170°
2026-04-29 20:39 61.82913 -7.11328 10480 ft 185 kts 170°
2026-04-29 20:40 61.81690 -7.10399 10906 ft 187 kts 170°
2026-04-29 20:40 61.80481 -7.09481 11325 ft 188 kts 170°
2026-04-29 20:40 61.79241 -7.08539 11757 ft 189 kts 171°
2026-04-29 20:40 61.78008 -7.07605 12180 ft 190 kts 171°
2026-04-29 20:41 61.76748 -7.06650 12614 ft 191 kts 171°
2026-04-29 20:41 61.75498 -7.05704 13045 ft 192 kts 171°
2026-04-29 20:41 61.74242 -7.04754 13476 ft 194 kts 171°
2026-04-29 20:41 61.72969 -7.03792 13909 ft 195 kts 171°
2026-04-29 20:42 61.71676 -7.02816 14305 ft 196 kts 171°
2026-04-29 20:42 61.70396 -7.01850 14695 ft 197 kts 171°
2026-04-29 20:42 61.69105 -7.00877 15085 ft 198 kts 171°
2026-04-29 20:42 61.67798 -6.99892 15474 ft 199 kts 171°
2026-04-29 20:43 61.66503 -6.98919 15863 ft 199 kts 171°
2026-04-29 20:43 61.65185 -6.97928 16250 ft 200 kts 171°
2026-04-29 20:43 61.63879 -6.96946 16618 ft 202 kts 171°
2026-04-29 20:43 61.62551 -6.95949 16991 ft 202 kts 171°
2026-04-29 20:44 61.61223 -6.94952 17349 ft 203 kts 171°
2026-04-29 20:44 61.59888 -6.93957 17750 ft 204 kts 171°
2026-04-29 20:44 61.58546 -6.92952 18159 ft 205 kts 171°
2026-04-29 20:44 61.57195 -6.91944 18566 ft 206 kts 171°
2026-04-29 20:45 61.55857 -6.90943 18912 ft 207 kts 171°
2026-04-29 20:45 61.54490 -6.89919 19247 ft 209 kts 171°
2026-04-29 20:45 61.53112 -6.88896 19619 ft 210 kts 171°
2026-04-29 20:45 61.51720 -6.87863 19956 ft 212 kts 171°
2026-04-29 20:46 61.50338 -6.86831 20244 ft 215 kts 170°
2026-04-29 20:46 61.48922 -6.85778 20597 ft 215 kts 170°
2026-04-29 20:46 61.47505 -6.84725 20933 ft 217 kts 170°
2026-04-29 20:46 61.46073 -6.83662 21261 ft 218 kts 170°
2026-04-29 20:47 61.44646 -6.82607 21583 ft 220 kts 170°
2026-04-29 20:47 61.43206 -6.81540 21911 ft 221 kts 170°
2026-04-29 20:47 61.41749 -6.80461 22234 ft 223 kts 170°
2026-04-29 20:47 61.40269 -6.79368 22557 ft 224 kts 169°
2026-04-29 20:48 61.38795 -6.78280 22885 ft 226 kts 169°
2026-04-29 20:48 61.37316 -6.77189 23195 ft 228 kts 169°
2026-04-29 20:48 61.35818 -6.76085 23512 ft 229 kts 169°
2026-04-29 20:48 61.34306 -6.74973 23829 ft 231 kts 169°
2026-04-29 20:49 61.32772 -6.73845 24111 ft 232 kts 169°
2026-04-29 20:49 61.31264 -6.72737 24371 ft 234 kts 169°
2026-04-29 20:49 61.29720 -6.71604 24634 ft 235 kts 169°
2026-04-29 20:49 61.28173 -6.70471 24899 ft 237 kts 169°
2026-04-29 20:50 61.26614 -6.69330 25164 ft 238 kts 169°
2026-04-29 20:50 61.25040 -6.68178 25428 ft 239 kts 169°
2026-04-29 20:50 61.23465 -6.67028 25691 ft 241 kts 169°
2026-04-29 20:50 61.21876 -6.65868 25950 ft 242 kts 169°
2026-04-29 20:51 61.20277 -6.64703 26207 ft 244 kts 169°
2026-04-29 20:51 61.18693 -6.63549 26464 ft 245 kts 169°
2026-04-29 20:51 61.17061 -6.62361 26725 ft 247 kts 169°
2026-04-29 20:51 61.15453 -6.61193 26980 ft 248 kts 169°
2026-04-29 20:52 61.13815 -6.60004 27237 ft 249 kts 169°
2026-04-29 20:52 61.12167 -6.58809 27490 ft 251 kts 169°
2026-04-29 20:52 61.10513 -6.57610 27753 ft 252 kts 169°
2026-04-29 20:52 61.08845 -6.56404 28006 ft 254 kts 168°
2026-04-29 20:53 61.07190 -6.55208 28254 ft 255 kts 168°
2026-04-29 20:53 61.05513 -6.53998 28509 ft 256 kts 168°
2026-04-29 20:53 61.03822 -6.52778 28759 ft 258 kts 168°
2026-04-29 20:53 61.02120 -6.51552 29007 ft 259 kts 168°
2026-04-29 20:54 60.98664 -6.49348 29359 ft 262 kts 174°
2026-04-29 20:54 60.96859 -6.48461 29359 ft 270 kts 173°
2026-04-29 20:54 60.95032 -6.47520 29367 ft 275 kts 173°
2026-04-29 20:55 60.93160 -6.46561 29371 ft 279 kts 173°
2026-04-29 20:55 60.91259 -6.45604 29372 ft 282 kts 173°
2026-04-29 20:55 60.89345 -6.44641 29377 ft 284 kts 173°
2026-04-29 20:55 60.87417 -6.43668 29379 ft 286 kts 173°
2026-04-29 20:56 60.85467 -6.42684 29376 ft 287 kts 173°
2026-04-29 20:56 60.83520 -6.41705 29379 ft 288 kts 173°
2026-04-29 20:56 60.81564 -6.40723 29380 ft 289 kts 172°
2026-04-29 20:56 60.79606 -6.39741 29373 ft 289 kts 172°
2026-04-29 20:57 60.77647 -6.38758 29375 ft 290 kts 172°
2026-04-29 20:57 60.75709 -6.37788 29372 ft 290 kts 172°
2026-04-29 20:57 60.73750 -6.36809 29371 ft 290 kts 172°
2026-04-29 20:57 60.71777 -6.35825 29371 ft 290 kts 172°
2026-04-29 20:58 60.69811 -6.34844 29368 ft 292 kts 172°
2026-04-29 20:58 60.67819 -6.33855 29367 ft 295 kts 172°
2026-04-29 20:58 60.65825 -6.32864 29367 ft 296 kts 172°
2026-04-29 20:58 60.63839 -6.31877 29368 ft 297 kts 172°
2026-04-29 20:59 60.61810 -6.30871 29370 ft 298 kts 172°
2026-04-29 20:59 60.59794 -6.29871 29367 ft 299 kts 172°
2026-04-29 20:59 60.57770 -6.28870 29372 ft 299 kts 172°
2026-04-29 20:59 60.55766 -6.27880 29370 ft 299 kts 172°
2026-04-29 21:00 60.53734 -6.26877 29368 ft 300 kts 172°
2026-04-29 21:00 60.51701 -6.25875 29373 ft 300 kts 172°
2026-04-29 21:00 60.49679 -6.24881 29372 ft 300 kts 172°
2026-04-29 21:00 60.47645 -6.23881 29371 ft 300 kts 172°
2026-04-29 21:01 60.45601 -6.22877 29378 ft 300 kts 172°
2026-04-29 21:01 60.43593 -6.21893 29371 ft 300 kts 172°
2026-04-29 21:01 60.41558 -6.20896 29374 ft 300 kts 172°
2026-04-29 21:01 60.39542 -6.19911 29377 ft 300 kts 172°
2026-04-29 21:02 60.37509 -6.18917 29377 ft 300 kts 172°
2026-04-29 21:02 60.35469 -6.17922 29380 ft 300 kts 172°
2026-04-29 21:02 60.33463 -6.16945 29381 ft 300 kts 172°
2026-04-29 21:02 60.31421 -6.15951 29385 ft 300 kts 172°
2026-04-29 21:03 60.30076 -6.15297 29377 ft 300 kts 172°
2026-04-29 21:03 60.27370 -6.13984 29376 ft 300 kts 172°
2026-04-29 21:03 60.26017 -6.13328 29376 ft 300 kts 171°
2026-04-29 21:03 60.23987 -6.12345 29383 ft 300 kts 171°
2026-04-29 21:04 60.21954 -6.11361 29385 ft 300 kts 171°
2026-04-29 21:04 60.19927 -6.10382 29377 ft 300 kts 171°
2026-04-29 21:04 60.17900 -6.09404 29388 ft 299 kts 171°
2026-04-29 21:04 60.15875 -6.08428 29382 ft 299 kts 171°
2026-04-29 21:05 60.13845 -6.07452 29385 ft 299 kts 171°
2026-04-29 21:05 60.11841 -6.06488 29385 ft 299 kts 171°
2026-04-29 21:05 60.09816 -6.05516 29394 ft 299 kts 171°
2026-04-29 21:05 60.07789 -6.04544 29386 ft 299 kts 171°
2026-04-29 21:06 60.05762 -6.03574 29386 ft 299 kts 171°
2026-04-29 21:06 60.03726 -6.02600 29386 ft 300 kts 171°
2026-04-29 21:06 60.01696 -6.01566 29392 ft 301 kts 167°
2026-04-29 21:07 59.97814 -5.98380 29386 ft 303 kts 162°
2026-04-29 21:07 59.93911 -5.95135 29384 ft 303 kts 162°
2026-04-29 21:08 59.90020 -5.91871 29388 ft 304 kts 162°
2026-04-29 21:08 59.86139 -5.88636 29395 ft 304 kts 162°
2026-04-29 21:09 59.82227 -5.85380 29392 ft 304 kts 162°
2026-04-29 21:09 59.78341 -5.82155 29392 ft 304 kts 162°
2026-04-29 21:10 59.74437 -5.78923 29392 ft 304 kts 162°
2026-04-29 21:10 59.70518 -5.75687 29396 ft 304 kts 162°
2026-04-29 21:11 59.66615 -5.72472 29396 ft 304 kts 162°
2026-04-29 21:11 59.62694 -5.69250 29394 ft 304 kts 162°
2026-04-29 21:12 59.58796 -5.66056 29397 ft 304 kts 162°
2026-04-29 21:12 59.54877 -5.62853 29395 ft 304 kts 161°
2026-04-29 21:13 59.50958 -5.59656 29398 ft 304 kts 161°
2026-04-29 21:13 59.47040 -5.56469 29399 ft 304 kts 161°
2026-04-29 21:14 59.43147 -5.53311 29400 ft 304 kts 161°
2026-04-29 21:14 59.39231 -5.50142 29397 ft 304 kts 161°
2026-04-29 21:15 59.35315 -5.46980 29398 ft 304 kts 161°
2026-04-29 21:15 59.31402 -5.43829 29394 ft 304 kts 161°
2026-04-29 21:16 59.27492 -5.40688 29394 ft 304 kts 161°
2026-04-29 21:16 59.23592 -5.37563 29395 ft 304 kts 161°
2026-04-29 21:17 59.19676 -5.34433 29400 ft 304 kts 161°
2026-04-29 21:17 59.15740 -5.31295 29398 ft 304 kts 161°
2026-04-29 21:18 59.11850 -5.28202 29390 ft 304 kts 161°
2026-04-29 21:18 59.07938 -5.25098 29393 ft 304 kts 161°
2026-04-29 21:19 59.04012 -5.21991 29396 ft 304 kts 161°
2026-04-29 21:19 59.00076 -5.18884 29391 ft 304 kts 161°
2026-04-29 21:20 58.96167 -5.15807 29307 ft 307 kts 160°
2026-04-29 21:20 58.94180 -5.14248 29141 ft 308 kts 160°
2026-04-29 21:20 58.92187 -5.12682 28950 ft 309 kts 160°
2026-04-29 21:20 58.90196 -5.11121 28752 ft 309 kts 160°
2026-04-29 21:21 58.88200 -5.09558 28547 ft 309 kts 160°
2026-04-29 21:21 58.86207 -5.08000 28339 ft 309 kts 160°
2026-04-29 21:21 58.84213 -5.06443 28141 ft 309 kts 160°
2026-04-29 21:21 58.82239 -5.04903 27938 ft 309 kts 160°
2026-04-29 21:22 58.80250 -5.03354 27738 ft 308 kts 160°
2026-04-29 21:22 58.78251 -5.01799 27528 ft 309 kts 160°
2026-04-29 21:22 58.76261 -5.00253 27325 ft 309 kts 160°
2026-04-29 21:22 58.74266 -4.98704 27119 ft 309 kts 160°
2026-04-29 21:23 58.72269 -4.97156 26915 ft 308 kts 160°
2026-04-29 21:23 58.70279 -4.95616 26712 ft 309 kts 160°
2026-04-29 21:23 58.68282 -4.94072 26502 ft 309 kts 160°
2026-04-29 21:23 58.66305 -4.92544 26305 ft 309 kts 160°
2026-04-29 21:24 58.64315 -4.91009 26097 ft 308 kts 160°
2026-04-29 21:24 58.62316 -4.89470 25895 ft 308 kts 160°
2026-04-29 21:24 58.60324 -4.87938 25691 ft 308 kts 160°
2026-04-29 21:24 58.58329 -4.86404 25485 ft 308 kts 160°
2026-04-29 21:25 58.56365 -4.84895 25283 ft 307 kts 160°
2026-04-29 21:25 58.54374 -4.83369 25082 ft 307 kts 160°
2026-04-29 21:25 58.52397 -4.81855 24880 ft 306 kts 160°
2026-04-29 21:25 58.50418 -4.80342 24677 ft 305 kts 160°
2026-04-29 21:26 58.48451 -4.78838 24476 ft 304 kts 160°
2026-04-29 21:26 58.46478 -4.77331 24275 ft 303 kts 160°
2026-04-29 21:26 58.44525 -4.75845 24070 ft 303 kts 160°
2026-04-29 21:26 58.42579 -4.74363 23859 ft 301 kts 160°
2026-04-29 21:27 58.41289 -4.73381 23706 ft 300 kts 160°
2026-04-29 21:27 58.38724 -4.71433 23441 ft 298 kts 160°
2026-04-29 21:27 58.36802 -4.69976 23242 ft 296 kts 160°
2026-04-29 21:27 58.34893 -4.68529 23034 ft 295 kts 160°
2026-04-29 21:28 58.32981 -4.67082 22849 ft 294 kts 160°
2026-04-29 21:28 58.31090 -4.65651 22653 ft 293 kts 160°
2026-04-29 21:28 58.29196 -4.64222 22460 ft 292 kts 160°
2026-04-29 21:28 58.27304 -4.62796 22269 ft 291 kts 159°
2026-04-29 21:29 58.25425 -4.61381 22077 ft 290 kts 159°
2026-04-29 21:29 58.23552 -4.59971 21887 ft 289 kts 159°
2026-04-29 21:29 58.21675 -4.58560 21696 ft 289 kts 159°
2026-04-29 21:29 58.19801 -4.57154 21492 ft 288 kts 159°
2026-04-29 21:30 58.17936 -4.55756 21311 ft 288 kts 159°
2026-04-29 21:30 58.16079 -4.54364 21125 ft 287 kts 159°
2026-04-29 21:30 58.14220 -4.52973 20933 ft 286 kts 159°
2026-04-29 21:30 58.12385 -4.51603 20743 ft 286 kts 159°
2026-04-29 21:31 58.10511 -4.50205 20555 ft 285 kts 159°
2026-04-29 21:31 58.08686 -4.48845 20367 ft 285 kts 159°
2026-04-29 21:31 58.06842 -4.47469 20172 ft 284 kts 159°
2026-04-29 21:31 58.05002 -4.46101 19992 ft 284 kts 159°
2026-04-29 21:32 58.03182 -4.44750 19805 ft 283 kts 158°
2026-04-29 21:32 58.01341 -4.43382 19620 ft 283 kts 158°
2026-04-29 21:32 57.99513 -4.42026 19431 ft 282 kts 158°
2026-04-29 21:32 57.97683 -4.40672 19244 ft 281 kts 158°
2026-04-29 21:33 57.95878 -4.39336 19058 ft 281 kts 158°
2026-04-29 21:33 57.94061 -4.37992 18874 ft 280 kts 158°
2026-04-29 21:33 57.92244 -4.36651 18689 ft 280 kts 158°
2026-04-29 21:33 57.90430 -4.35313 18483 ft 279 kts 158°
2026-04-29 21:34 57.88652 -4.33956 18389 ft 275 kts 155°
2026-04-29 21:34 57.86937 -4.32432 18384 ft 270 kts 154°
2026-04-29 21:34 57.85240 -4.30934 18385 ft 267 kts 155°
2026-04-29 21:34 57.83553 -4.29474 18378 ft 266 kts 155°
2026-04-29 21:35 57.81873 -4.28021 18387 ft 265 kts 154°
2026-04-29 21:35 57.80201 -4.26564 18388 ft 264 kts 155°
2026-04-29 21:35 57.78550 -4.25129 18391 ft 264 kts 154°
2026-04-29 21:35 57.76883 -4.23682 18384 ft 264 kts 154°
2026-04-29 21:36 57.75213 -4.22237 18391 ft 263 kts 155°
2026-04-29 21:36 57.73566 -4.20808 18384 ft 264 kts 154°
2026-04-29 21:36 57.71880 -4.19349 18388 ft 263 kts 154°
2026-04-29 21:36 57.70237 -4.17930 18390 ft 263 kts 154°
2026-04-29 21:37 57.68569 -4.16489 18389 ft 263 kts 154°
2026-04-29 21:37 57.66902 -4.15052 18395 ft 263 kts 154°
2026-04-29 21:37 57.65237 -4.13617 18392 ft 263 kts 154°
2026-04-29 21:37 57.63577 -4.12188 18391 ft 263 kts 154°
2026-04-29 21:38 57.61926 -4.10769 18394 ft 263 kts 154°
2026-04-29 21:38 57.60257 -4.09336 18392 ft 263 kts 154°
2026-04-29 21:38 57.58594 -4.07908 18397 ft 263 kts 154°
2026-04-29 21:38 57.56924 -4.06476 18394 ft 263 kts 154°
2026-04-29 21:39 57.55233 -4.05275 18403 ft 264 kts 163°
2026-04-29 21:39 57.53409 -4.04732 18413 ft 267 kts 174°
2026-04-29 21:39 57.51551 -4.04877 18417 ft 270 kts 184°
2026-04-29 21:39 57.49682 -4.05375 18409 ft 270 kts 184°
2026-04-29 21:40 57.47817 -4.05825 18406 ft 270 kts 184°
2026-04-29 21:40 57.45968 -4.06282 18400 ft 270 kts 184°
2026-04-29 21:40 57.44110 -4.06759 18410 ft 270 kts 184°
2026-04-29 21:40 57.42235 -4.07235 18400 ft 270 kts 184°
2026-04-29 21:41 57.40375 -4.07701 18407 ft 270 kts 184°
2026-04-29 21:41 57.38529 -4.08165 18408 ft 270 kts 184°
2026-04-29 21:41 57.36646 -4.08638 18398 ft 270 kts 184°
2026-04-29 21:41 57.34793 -4.09104 18406 ft 270 kts 184°
2026-04-29 21:42 57.32929 -4.09571 18400 ft 270 kts 184°
2026-04-29 21:42 57.31694 -4.09878 18406 ft 270 kts 184°
2026-04-29 21:42 57.29830 -4.10340 18406 ft 270 kts 184°
2026-04-29 21:42 57.27347 -4.10958 18403 ft 270 kts 184°
2026-04-29 21:43 57.26079 -4.11273 18402 ft 270 kts 184°
2026-04-29 21:43 57.24237 -4.11729 18412 ft 270 kts 184°
2026-04-29 21:43 57.22372 -4.12192 18410 ft 270 kts 184°
2026-04-29 21:43 57.20497 -4.12655 18405 ft 270 kts 184°
2026-04-29 21:44 57.18638 -4.13116 18408 ft 270 kts 184°
2026-04-29 21:44 57.16792 -4.13573 18411 ft 270 kts 184°
2026-04-29 21:44 57.14924 -4.14034 18418 ft 270 kts 184°
2026-04-29 21:44 57.13070 -4.14491 18412 ft 270 kts 184°
2026-04-29 21:45 57.11208 -4.14954 18415 ft 270 kts 184°
2026-04-29 21:45 57.09349 -4.15409 18416 ft 270 kts 184°
2026-04-29 21:45 57.07488 -4.15867 18421 ft 269 kts 184°
2026-04-29 21:45 57.05623 -4.16329 18427 ft 269 kts 184°
2026-04-29 21:46 57.03774 -4.16783 18424 ft 270 kts 184°
2026-04-29 21:46 57.01908 -4.17242 18425 ft 270 kts 184°
2026-04-29 21:46 57.00048 -4.17698 18421 ft 270 kts 184°
2026-04-29 21:46 56.98181 -4.18153 18429 ft 269 kts 184°
2026-04-29 21:47 56.96324 -4.18609 18428 ft 269 kts 184°
2026-04-29 21:47 56.94496 -4.19061 18430 ft 269 kts 184°
2026-04-29 21:47 56.92641 -4.19514 18429 ft 268 kts 184°
2026-04-29 21:47 56.90787 -4.19966 18431 ft 268 kts 184°
2026-04-29 21:48 56.88940 -4.20415 18438 ft 267 kts 184°
2026-04-29 21:48 56.87107 -4.20861 18435 ft 268 kts 184°
2026-04-29 21:48 56.85238 -4.21320 18442 ft 268 kts 184°
2026-04-29 21:48 56.83401 -4.21767 18437 ft 269 kts 183°
2026-04-29 21:49 56.81545 -4.22216 18429 ft 268 kts 183°
2026-04-29 21:49 56.79687 -4.22668 18426 ft 269 kts 184°
2026-04-29 21:49 56.77838 -4.23116 18359 ft 271 kts 184°
2026-04-29 21:49 56.75968 -4.23571 18356 ft 270 kts 183°
2026-04-29 21:50 56.74097 -4.24024 18360 ft 269 kts 183°
2026-04-29 21:50 56.72238 -4.24472 18360 ft 269 kts 183°
2026-04-29 21:50 56.70376 -4.24922 18354 ft 269 kts 183°
2026-04-29 21:50 56.68542 -4.25366 18352 ft 269 kts 183°
2026-04-29 21:51 56.66660 -4.25821 18122 ft 275 kts 184°
2026-04-29 21:51 56.64745 -4.26286 17814 ft 280 kts 184°
2026-04-29 21:51 56.60851 -4.27233 17175 ft 284 kts 184°
2026-04-29 21:52 56.58880 -4.27702 16846 ft 285 kts 184°
2026-04-29 21:52 56.56915 -4.28174 16482 ft 285 kts 184°
2026-04-29 21:52 56.54947 -4.28654 15851 ft 288 kts 184°
2026-04-29 21:52 56.52983 -4.29132 15461 ft 282 kts 184°
2026-04-29 21:53 56.51039 -4.29577 15132 ft 277 kts 183°
2026-04-29 21:53 56.49152 -4.30018 14813 ft 274 kts 184°
2026-04-29 21:53 56.47241 -4.30482 14496 ft 272 kts 184°
2026-04-29 21:53 56.45399 -4.30925 14182 ft 269 kts 184°
2026-04-29 21:54 56.43538 -4.31367 13849 ft 266 kts 183°
2026-04-29 21:54 56.41707 -4.31802 13548 ft 264 kts 183°
2026-04-29 21:54 56.39895 -4.32229 13243 ft 263 kts 184°
2026-04-29 21:54 56.38069 -4.32666 12942 ft 263 kts 184°
2026-04-29 21:55 56.36278 -4.33094 12648 ft 262 kts 184°
2026-04-29 21:55 56.34474 -4.33521 12344 ft 262 kts 184°
2026-04-29 21:55 56.32667 -4.33950 12073 ft 260 kts 184°
2026-04-29 21:55 56.30875 -4.34372 11826 ft 259 kts 184°
2026-04-29 21:56 56.29088 -4.34795 11550 ft 258 kts 184°
2026-04-29 21:56 56.27307 -4.35212 11280 ft 257 kts 184°
2026-04-29 21:56 56.25524 -4.35634 11009 ft 257 kts 184°
2026-04-29 21:56 56.23754 -4.36057 10743 ft 256 kts 184°
2026-04-29 21:57 56.22012 -4.36466 10482 ft 255 kts 184°
2026-04-29 21:57 56.20257 -4.36877 10034 ft 250 kts 184°
2026-04-29 21:57 56.18552 -4.37277 9559 ft 244 kts 184°
2026-04-29 21:57 56.16883 -4.37663 9093 ft 241 kts 184°
2026-04-29 21:58 56.15221 -4.38054 8753 ft 242 kts 184°
2026-04-29 21:58 56.13552 -4.38576 8465 ft 250 kts 195°
2026-04-29 21:58 56.12092 -4.40348 8174 ft 260 kts 220°
2026-04-29 21:58 56.10865 -4.42768 7888 ft 261 kts 224°
2026-04-29 21:59 56.10796 -4.42911 7877 ft 261 kts 224°
2026-04-29 22:06 56.10492 -4.43536 7816 ft 261 kts 225°
2026-04-29 22:07 56.09302 -4.45992 7574 ft 260 kts 225°
2026-04-29 22:07 56.08119 -4.48434 7329 ft 260 kts 225°
2026-04-29 22:07 56.06935 -4.50871 7085 ft 259 kts 225°
2026-04-29 22:07 56.05747 -4.53301 6840 ft 258 kts 225°
2026-04-29 22:08 56.04564 -4.55711 6583 ft 257 kts 225°
2026-04-29 22:08 56.03395 -4.58096 6347 ft 256 kts 225°
2026-04-29 22:08 56.02222 -4.60467 6122 ft 255 kts 225°
2026-04-29 22:08 56.01051 -4.62839 5890 ft 254 kts 225°
2026-04-29 22:09 55.99874 -4.65225 5659 ft 254 kts 225°
2026-04-29 22:09 55.98716 -4.67567 5434 ft 254 kts 225°
2026-04-29 22:09 55.97549 -4.69924 5210 ft 253 kts 225°
2026-04-29 22:09 55.96379 -4.72281 4971 ft 253 kts 225°
2026-04-29 22:10 55.95239 -4.74583 4732 ft 234 kts 225°
2026-04-29 22:10 55.94197 -4.76678 4485 ft 220 kts 224°
2026-04-29 22:10 55.93214 -4.78665 4244 ft 205 kts 224°
2026-04-29 22:10 55.92270 -4.80578 3999 ft 207 kts 224°
2026-04-29 22:11 55.91314 -4.82516 3773 ft 209 kts 224°
2026-04-29 22:11 55.90331 -4.84383 3540 ft 206 kts 214°
2026-04-29 22:11 55.89038 -4.85262 3265 ft 189 kts 178°
2026-04-29 22:11 55.87871 -4.84615 3056 ft 177 kts 142°
2026-04-29 22:12 55.86992 -4.83122 2866 ft 172 kts 133°
2026-04-29 22:12 55.86168 -4.81604 2791 ft 165 kts 133°
2026-04-29 22:12 55.85391 -4.80168 2791 ft 161 kts 133°
2026-04-29 22:12 55.84612 -4.78728 2783 ft 161 kts 133°
2026-04-29 22:13 55.83798 -4.77222 2800 ft 174 kts 133°
2026-04-29 22:13 55.82964 -4.75686 2804 ft 172 kts 133°
2026-04-29 22:13 55.82127 -4.74139 2801 ft 174 kts 133°
2026-04-29 22:13 55.81279 -4.72572 2805 ft 178 kts 133°
2026-04-29 22:14 55.80411 -4.70971 2807 ft 180 kts 133°
2026-04-29 22:14 55.79539 -4.69360 2813 ft 182 kts 133°
2026-04-29 22:14 55.78655 -4.67728 2818 ft 183 kts 133°
2026-04-29 22:14 55.77775 -4.66104 2809 ft 183 kts 134°
2026-04-29 22:15 55.76960 -4.64377 2799 ft 182 kts 118°
2026-04-29 22:15 55.76800 -4.62143 2699 ft 190 kts 82°
2026-04-29 22:15 55.77371 -4.60045 2547 ft 199 kts 52°
2026-04-29 22:15 55.78482 -4.58580 2280 ft 190 kts 36°
2026-04-29 22:16 55.79553 -4.57387 1928 ft 181 kts 39°
2026-04-29 22:16 55.80515 -4.55937 1737 ft 169 kts 50°
2026-04-29 22:16 55.81319 -4.54394 1602 ft 173 kts 51°
2026-04-29 22:16 55.82092 -4.52891 1448 ft 155 kts 51°
2026-04-29 22:17 55.82565 -4.51988 1285 ft 142 kts 50°
2026-04-29 22:17 55.83383 -4.50461 1023 ft 114 kts 50°
2026-04-29 22:17 55.83907 -4.49440 862 ft 113 kts 46°
2026-04-29 22:17 55.84416 -4.48504 722 ft 88 kts 49°
2026-04-29 22:18 55.84827 -4.47750 566 ft 86 kts 51°
2026-04-29 22:18 55.85220 -4.47017 403 ft 84 kts 49°
2026-04-29 22:18 55.85622 -4.46265 292 ft 83 kts 50°
2026-04-29 22:18 55.85875 -4.45788 212 ft 78 kts 48°
2026-04-29 22:19 55.86268 -4.45056 111 ft 80 kts 49°
2026-04-29 22:19 55.86689 -4.44261 29 ft 56 kts 46°
2026-04-29 22:19 55.86808 -4.44050 28 ft 14 kts 42°
2026-04-29 22:19 55.86898 -4.43876 28 ft 22 kts 46°
2026-04-29 22:20 55.86970 -4.43744 28 ft 21 kts 48°
2026-04-29 22:20 55.87017 -4.43615 31 ft 2 kts 159°
2026-04-29 22:20 55.86955 -4.43660 28 ft 22 kts 200°
2026-04-29 22:20 55.86814 -4.43751 24 ft 21 kts 202°
2026-04-29 22:21 55.86746 -4.43643 25 ft 16 kts 73°
2026-04-29 22:21 55.86768 -4.43511 26 ft 13 kts 77°
2026-04-29 22:21 55.86799 -4.43323 27 ft 16 kts 73°
2026-04-29 22:21 55.86828 -4.43144 27 ft 15 kts 73°
2026-04-29 22:22 55.86863 -4.42974 27 ft 14 kts 47°
2026-04-29 22:22 55.86965 -4.42874 29 ft 20 kts 26°
2026-04-29 22:22 55.87047 -4.42794 25 ft 6 kts 107°
2026-04-29 22:22 55.87019 -4.42640 28 ft 15 kts 109°
2026-04-29 22:23 55.87007 -4.42575 26 ft 0 kts 106°